This is the latest recevied weather packets stored in our database for station/object NI4CE-10. If no packets are shown the sender has not sent any weather packets the latest 10 day(s).
| Time | Temp. | Humidity | Pressure | Rain* | Wind** | Luminosity | Snow |
|---|---|---|---|---|---|---|---|
| 1778071764 | 22.78° C | 100% | 1019.1 hPa | 0 mm | - | - | - |
| 1778071542 | 23.89° C | 100% | 1019.1 hPa | 0 mm | - | - | - |
| 1778071293 | 23.33° C | 100% | 1019.1 hPa | 0 mm | - | - | - |
| 1778071242 | 23.33° C | 100% | 1019.1 hPa | 0 mm | - | - | - |
| 1778070979 | 22.78° C | 100% | 1019.1 hPa | 0 mm | - | - | - |
| 1778070942 | 22.78° C | 100% | 1019.1 hPa | 0 mm | - | - | - |
| 1778070691 | 22.78° C | 100% | 1019.1 hPa | 0 mm | - | - | - |
| 1778070642 | 22.78° C | 100% | 1019.1 hPa | 0 mm | - | - | - |
| 1778070402 | 21.67° C | 100% | 1019.1 hPa | 0 mm | - | - | - |
| 1778070342 | 21.67° C | 100% | 1019.1 hPa | 0 mm | - | - | - |
| 1778070316 | 20.56° C | 100% | 1018.9 hPa | 0 mm | - | - | - |
| 1778070042 | 21.67° C | 100% | 1019 hPa | 0 mm | - | - | - |
| 1778069742 | 21.11° C | 100% | 1019 hPa | 0 mm | - | - | - |
| 1778069442 | 21.11° C | 100% | 1018.9 hPa | 0 mm | - | - | - |
| 1778069187 | 20.56° C | 100% | 1018.9 hPa | 0 mm | - | - | - |
| 1778069142 | 20.56° C | 100% | 1018.9 hPa | 0 mm | - | - | - |
| 1778068892 | 20.56° C | 100% | 1018.9 hPa | 0 mm | - | - | - |
| 1778068842 | 20.56° C | 100% | 1018.9 hPa | 0 mm | - | - | - |
| 1778068542 | 20.56° C | 100% | 1018.9 hPa | 0 mm | - | - | - |
| 1778068242 | 20° C | 100% | 1018.8 hPa | 0 mm | - | - | - |
| 1778068066 | 20° C | 100% | 1018.7 hPa | 0 mm | - | - | - |
| 1778068031 | 20° C | 100% | 1018.7 hPa | 0 mm | - | - | - |
| 1778067943 | 20° C | 100% | 1018.7 hPa | 0 mm | - | - | - |
| 1778067642 | 18.89° C | 100% | 1018.7 hPa | 0 mm | - | - | - |
| 1778067343 | 18.33° C | 100% | 1018.8 hPa | 0 mm | - | - | - |
* Rain latest hour (hover to see other rain measurements)
** Current wind speed in m/s (hover to see current wind gust speed)